Content
SEND FEEDBACK

Daily
Averages
Monthly
Summary
United Kingdom

LIZARD, ENGLAND


Home > Europe > United Kingdom > England
Elevation: 240 feet     Latitude: 49 57N     Longitude: 005 12W

WEATHER
 
SELECT A DAY
Number of Records: 184,420;   Date Range: 7/1/96 - 11/21/14
 
SHARE

PRINT THIS DATA

[ ← Previous Day ]
WEATHER ALMANAC - OCTOBER 22, 2013
[ Next Day → ]
[ °C ]   °F
Weather ElementAverageHighLow
Temperature58.6 °F61 °F (12:50 pm)55.4 °F (8:50 pm)
Dewpoint56.7 °F59 °F (9:50 am)53.6 °F (8:50 pm)
Humidity93.3 %100 % (4:50 am)86 % (6:50 pm)
Barometer29.25 in29.39 in (12:50 am)29.15 in (7:50 pm)
Wind Speed16.9 mph21.9 mph (11:50 am)
Wind Gust40.3 mph (1:50 pm)
Weather ElementAverage
Visibility4.7 mi
Wind DirectionSSW (192.6 °)

Weather ElementTotal
Precipitation---
Heating Degree Days6.8 (Base 65)
Growing Degree Days8.2 (Base 50)
Averaged from 31 records on October 22, 2013
WEATHER CONDITIONS BREAKOUT
WIND DIRECTION BREAKOUT
WEATHER BY HOUR - OCTOBER 22, 2013
[ °C ]   °F
Local TimeTemperatureDewpointHumidityBarometerVisibilityWind DirectionWind SpeedGust SpeedPrecipitationEventsConditions
12:50 AM59.0 °F57.2 °F94 %29.39 in4.3 miSSW (200°)18.4 mph33.4 mphHaze
1:50 AM59.0 °F55.4 °F88 %29.39 in6.2 miSouth (190°)16.1 mph29.9 mphHaze
2:50 AM57.2 °F55.4 °F94 %29.36 in6.2 miSouth (180°)15.0 mph27.6 mphHaze
3:50 AM58.0 °F56.0 °F91 %29.34 in7.0 miSouth (190°)16.1 mphHaze
3:50 AM59.0 °F55.4 °F88 %29.33 in6.2 miSouth (190°)16.1 mph32.2 mphHaze
4:50 AM57.2 °F57.2 °F100 %29.30 in2.5 miSouth (190°)16.1 mph28.8 mphLight Drizzle
5:50 AM57.2 °F57.2 °F100 %29.30 in1.9 miSouth (190°)16.1 mph35.7 mphRainLight Rain
6:50 AM57.2 °F57.2 °F100 %29.30 in1.6 miSSW (200°)18.4 mph34.5 mphRainRain
6:50 AM58.0 °F57.0 °F96 %29.30 in2.0 miSSW (200°)18.4 mphRainRain
7:50 AM57.2 °F55.4 °F94 %29.27 in4.3 miSouth (190°)12.7 mph24.2 mphRainLight Rain
8:50 AM59.0 °F57.2 °F94 %29.27 in2.8 miSouth (190°)17.3 mph31.1 mphMostly Cloudy
9:50 AM60.0 °F58.0 °F92 %29.29 in3.0 miSouth (190°)16.1 mphMist
9:50 AM59.0 °F59.0 °F100 %29.27 in2.8 miSouth (190°)16.1 mph29.9 mphMostly Cloudy
10:50 AM59.0 °F59.0 °F100 %29.27 in3.7 miSSW (200°)16.1 mph28.8 mphMostly Cloudy
11:50 AM60.8 °F59.0 °F94 %29.27 in3.7 miSSW (200°)21.9 mphHaze
12:50 PM60.8 °F59.0 °F94 %29.27 in3.7 miSSW (200°)19.6 mph35.7 mphHaze
12:50 PM61.0 °F59.0 °F90 %29.27 in4.0 miSSW (200°)19.6 mphHaze
1:50 PM60.8 °F59.0 °F94 %29.24 in4.3 miSouth (190°)21.9 mph40.3 mphHaze
2:50 PM60.8 °F59.0 °F94 %29.21 in5.0 miSouth (190°)19.6 mph35.7 mphHaze
3:50 PM60.0 °F57.0 °F88 %29.21 in5.0 miSouth (180°)17.3 mphRainLight Rain Showers
3:50 PM60.8 °F57.2 °F88 %29.21 in5.0 miSouth (180°)17.3 mph33.4 mphRainLight Rain Showers
4:50 PM59.0 °F55.4 °F88 %29.18 in6.2 miSouth (190°)21.9 mph39.1 mphHaze
5:50 PM59.0 °F55.4 °F88 %29.18 in6.2 miSouth (190°)19.6 mph35.7 mphHaze
6:50 PM59.0 °F55.4 °F88 %29.18 in6.2 miSouth (190°)16.1 mph31.1 mphMostly Cloudy
6:50 PM58.0 °F55.0 °F86 %29.19 in6.0 miSouth (190°)16.1 mphMostly Cloudy
7:50 PM57.2 °F55.4 °F94 %29.15 in5.0 miSouth (180°)16.1 mph31.1 mphRainLight Rain Showers
8:50 PM55.4 °F53.6 °F94 %29.15 in6.2 miSouth (180°)9.2 mphRainLight Rain Showers
9:50 PM57.0 °F56.0 °F93 %29.16 in6.0 miSSW (200°)12.7 mphRainLight Rain Showers
9:50 PM57.2 °F55.4 °F94 %29.15 in6.2 miSSW (200°)12.7 mphMostly Cloudy
10:50 PM57.2 °F57.2 °F100 %29.15 in5.0 miSSW (200°)16.1 mph27.6 mphRainLight Rain Showers
11:50 PM55.4 °F53.6 °F94 %29.15 in6.2 miSW (220°)18.4 mph31.1 mphRainLight Rain Showers
Hourly data recorded from EGDR, located miles away from Lizard, England







STORIES FROM OUR PARTNERS